FW6662 Weather Reports


Display with metric or nautical units.
time (UTC)temp
F
wind
direction
speed
MPH
gust
MPH
rain 1hr
in
rain 24hr
in
rain mn
in
humidity
%
barometer
mb
20260905112003 60 0 0.0 0.0 0.00 0.00 0.00 96 1014.5
20260905111503 60 0 0.0 0.0 0.00 0.00 0.00 96 1014.3
20260905111003 60 0 0.0 0.0 0.00 0.00 0.00 96 1014.3
20260905110504 60 0 0.0 0.0 0.00 0.00 0.00 96 1014.3
20260905110004 60 0 0.0 0.0 0.00 0.00 0.00 96 1014.3
20260905105503 60 0 0.0 0.0 0.00 0.00 0.00 96 1014.2
20260905105003 60 0 0.0 0.0 0.00 0.00 0.00 96 1014.2
20260905104524 60 0 0.0 0.0 0.00 0.00 0.00 96 1014.1
20260905104025 60 0 0.0 0.0 0.00 0.00 0.00 95 1013.9
20260905103503 60 0 0.0 0.0 0.00 0.00 0.00 95 1013.7
20260905103025 60 0 0.0 0.0 0.00 0.00 0.00 96 1013.6
20260905102503 61 0 0.0 0.0 0.00 0.00 0.00 96 1013.5
20260905102003 61 0 0.0 0.0 0.00 0.00 0.00 95 1013.6
20260905101524 61 0 0.0 0.0 0.00 0.00 0.00 95 1013.5
20260905101004 61 0 0.0 0.0 0.00 0.00 0.00 95 1013.4
20260905100503 61 0 0.0 0.0 0.00 0.00 0.00 95 1013.3
20260905100003 61 0 0.0 0.0 0.00 0.00 0.00 95 1013.3
20260905095503 61 0 0.0 0.0 0.00 0.00 0.00 95 1013.3
20260905095004 61 0 0.0 0.0 0.00 0.00 0.00 95 1013.3
20260905094504 61 0 0.0 0.0 0.00 0.00 0.00 95 1013.3
20260905094003 61 0 0.0 0.0 0.00 0.00 0.00 94 1013.3
20260905093503 62 0 0.0 0.0 0.00 0.00 0.00 95 1013.3
20260905093024 62 0 0.0 0.0 0.00 0.00 0.00 95 1013.3
20260905092503 62 0 0.0 0.0 0.00 0.00 0.00 94 1013.3
20260905092024 62 0 0.0 0.0 0.00 0.00 0.00 94 1013.3
20260905091503 62 0 0.0 0.0 0.00 0.00 0.00 94 1013.3
20260905091003 62 0 0.0 0.0 0.00 0.00 0.00 94 1013.2
20260905090503 62 0 0.0 0.0 0.00 0.00 0.00 94 1013.4
20260905090003 62 0 0.0 0.0 0.00 0.00 0.00 94 1013.4
20260905085503 62 0 0.0 0.0 0.00 0.00 0.00 94 1013.3
20260905085003 62 148 0.0 1.0 0.00 0.00 0.00 93 1013.4
20260905084524 62 148 0.0 1.0 0.00 0.00 0.00 93 1013.3
20260905084003 62 148 0.0 1.0 0.00 0.00 0.00 93 1013.3
20260905083503 62 148 0.0 1.0 0.00 0.00 0.00 93 1013.3
20260905083003 62 0 0.0 0.0 0.00 0.00 0.00 93 1013.4
20260905082524 63 0 0.0 0.0 0.00 0.00 0.00 93 1013.4
20260905082003 63 148 0.0 1.0 0.00 0.00 0.00 93 1013.4
20260905081524 63 148 0.0 1.0 0.00 0.00 0.00 93 1013.4
20260905081003 63 148 0.0 1.0 0.00 0.00 0.00 92 1013.4
20260905080503 63 148 0.0 1.0 0.00 0.00 0.00 92 1013.5
20260905080003 63 148 0.0 1.0 0.00 0.00 0.00 93 1013.6
20260905075503 63 148 0.0 1.0 0.00 0.00 0.00 92 1013.6
20260905075024 63 148 0.0 1.0 0.00 0.00 0.00 92 1013.7
20260905074503 64 148 0.0 1.0 0.00 0.00 0.00 92 1013.7
20260905074003 64 148 0.0 1.0 0.00 0.00 0.00 92 1013.8
20260905073503 64 148 0.0 1.0 0.00 0.00 0.00 92 1013.6
20260905073003 64 148 0.0 1.0 0.00 0.00 0.00 92 1013.6
20260905072503 64 148 0.0 1.0 0.00 0.00 0.00 92 1013.6
20260905072003 64 148 0.0 1.0 0.00 0.00 0.00 92 1013.5
20260905071503 64 148 0.0 1.0 0.00 0.00 0.00 92 1013.5
20260905071003 64 148 0.0 1.0 0.00 0.00 0.00 92 1013.7
20260905070503 65 148 0.0 1.0 0.00 0.00 0.00 91 1013.7
20260905070003 65 148 0.0 1.0 0.00 0.00 0.00 92 1013.8
20260905065503 65 149 0.0 1.0 0.00 0.00 0.00 91 1013.9
20260905065003 65 150 0.0 1.0 0.00 0.00 0.00 92 1013.9
20260905064524 65 155 0.0 1.0 0.00 0.00 0.00 92 1014.1
20260905064024 65 155 0.0 1.0 0.00 0.00 0.00 93 1013.9
20260905063503 65 155 0.0 1.0 0.00 0.00 0.00 93 1014.0
20260905063003 65 135 0.0 1.0 0.00 0.00 0.00 92 1014.0
20260905062503 65 135 0.0 1.0 0.00 0.00 0.00 92 1014.1
20260905062003 66 0 0.0 0.0 0.00 0.00 0.00 93 1014.2
20260905061524 66 0 0.0 0.0 0.00 0.00 0.00 94 1014.2
20260905061003 66 0 0.0 0.0 0.00 0.00 0.00 94 1014.2
20260905060503 66 0 0.0 0.0 0.00 0.00 0.00 94 1014.2
20260905060003 66 0 0.0 0.0 0.00 0.00 0.00 94 1014.3
20260905055503 66 0 0.0 0.0 0.00 0.00 0.00 93 1014.3
20260905055003 66 0 0.0 0.0 0.00 0.00 0.00 93 1014.3
20260905054503 66 0 0.0 0.0 0.00 0.00 0.00 93 1014.3
20260905054024 66 0 0.0 0.0 0.00 0.00 0.00 92 1014.3
20260905053503 66 0 0.0 0.0 0.00 0.00 0.00 92 1014.4
20260905053003 66 0 0.0 0.0 0.00 0.00 0.00 92 1014.5
20260905052503 66 0 0.0 0.0 0.00 0.00 0.00 92 1014.7
20260905052003 66 0 0.0 0.0 0.00 0.00 0.00 92 1014.6
20260905051503 66 0 0.0 0.0 0.00 0.00 0.00 92 1014.7
20260905051003 66 0 0.0 0.0 0.00 0.00 0.00 92 1014.7
20260905050503 66 0 0.0 0.0 0.00 0.00 0.00 93 1014.7
20260905050024 66 0 0.0 0.0 0.00 0.00 0.00 93 1014.7
20260905045503 66 0 0.0 0.0 0.00 0.00 0.00 92 1014.7
20260905045003 66 0 0.0 0.0 0.00 0.00 0.00 93 1014.7
20260905044503 66 0 0.0 0.0 0.00 0.00 0.00 92 1014.7
20260905044003 67 0 0.0 0.0 0.00 0.00 0.00 92 1014.6
20260905043524 67 0 0.0 0.0 0.00 0.00 0.00 93 1014.7
20260905043003 67 0 0.0 0.0 0.00 0.00 0.00 92 1014.7
20260905042503 67 0 0.0 0.0 0.00 0.00 0.00 92 1014.8
20260905042003 67 0 0.0 0.0 0.00 0.00 0.00 92 1014.7
20260905041503 67 0 0.0 0.0 0.00 0.00 0.00 93 1014.6
20260905041003 67 0 0.0 0.0 0.00 0.00 0.00 92 1014.6
20260905040503 67 0 0.0 0.0 0.00 0.00 0.00 92 1014.7
20260905040004 67 0 0.0 0.0 0.00 0.00 0.00 92 1014.7
20260905035505 67 0 0.0 0.0 0.00 0.00 0.00 92 1014.7
20260905035005 67 0 0.0 0.0 0.00 0.00 0.00 92 1014.7
20260905034505 67 0 0.0 0.0 0.00 0.00 0.00 92 1014.6
20260905034005 67 0 0.0 0.0 0.00 0.00 0.00 91 1014.6
20260905033505 67 0 0.0 0.0 0.00 0.00 0.00 91 1014.6
20260905033026 67 0 0.0 0.0 0.00 0.00 0.00 91 1014.6
20260905032505 67 0 0.0 0.0 0.00 0.00 0.00 90 1014.6
20260905032005 67 0 0.0 0.0 0.00 0.00 0.00 90 1014.6
20260905031526 67 0 0.0 0.0 0.00 0.00 0.00 90 1014.5
20260905031005 67 0 0.0 0.0 0.00 0.00 0.00 90 1014.4
20260905030505 68 0 0.0 0.0 0.00 0.00 0.00 90 1014.3
20260905030005 68 0 0.0 0.0 0.00 0.00 0.00 91 1014.3
20260905025505 68 0 0.0 0.0 0.00 0.00 0.00 91 1014.3
20260905025005 68 0 0.0 0.0 0.00 0.00 0.00 91 1014.4
20260905024505 68 0 0.0 0.0 0.00 0.00 0.00 91 1014.5
20260905024005 68 0 0.0 0.0 0.00 0.00 0.00 91 1014.5
20260905023505 68 0 0.0 0.0 0.00 0.00 0.00 91 1014.5
20260905023005 68 0 0.0 0.0 0.00 0.00 0.00 90 1014.5
20260905022505 68 0 0.0 0.0 0.00 0.00 0.00 91 1014.5
20260905022005 68 0 0.0 0.0 0.00 0.00 0.00 90 1014.5
20260905021505 68 0 0.0 0.0 0.00 0.00 0.00 91 1014.6
20260905021026 68 0 0.0 0.0 0.00 0.00 0.00 90 1014.4
20260905020526 68 0 0.0 0.0 0.00 0.00 0.00 90 1014.4
20260905020005 68 0 0.0 0.0 0.00 0.00 0.00 91 1014.4
20260905015505 68 0 0.0 0.0 0.00 0.00 0.00 91 1014.5
20260905015005 68 0 0.0 0.0 0.00 0.00 0.00 91 1014.5
20260905014526 68 0 0.0 0.0 0.00 0.00 0.00 91 1014.7
20260905014005 68 0 0.0 0.0 0.00 0.00 0.00 91 1014.6
20260905013505 68 0 0.0 0.0 0.00 0.00 0.00 91 1014.7
20260905013005 68 0 0.0 0.0 0.00 0.00 0.00 90 1014.5
20260905012505 68 0 0.0 0.0 0.00 0.00 0.00 90 1014.4
20260905012005 68 0 0.0 0.0 0.00 0.00 0.00 88 1014.5
20260905011505 68 0 0.0 0.0 0.00 0.00 0.00 88 1014.5
20260905011004 68 0 0.0 0.0 0.00 0.00 0.00 89 1014.5
20260905010505 69 0 0.0 0.0 0.00 0.00 0.00 89 1014.5
20260905010005 68 0 0.0 0.0 0.00 0.00 0.00 87 1014.5
20260905005505 69 0 0.0 0.0 0.00 0.00 0.00 87 1014.6
20260905005005 69 0 0.0 0.0 0.00 0.00 0.00 87 1014.7
20260905004505 69 0 0.0 0.0 0.00 0.00 0.00 88 1014.6
20260905004025 69 0 0.0 0.0 0.00 0.00 0.00 86 1014.7
20260905003505 69 0 0.0 0.0 0.00 0.00 0.00 86 1014.5
20260905003005 69 0 0.0 0.0 0.00 0.00 0.00 87 1014.3
20260905002505 69 0 0.0 0.0 0.00 0.00 0.00 88 1014.3
20260905002005 69 0 0.0 0.0 0.00 0.00 0.00 88 1014.3
20260905001505 69 0 0.0 0.0 0.00 0.00 0.00 87 1014.2
20260905001026 69 0 0.0 0.0 0.00 0.00 0.00 87 1014.2
20260905000504 70 0 0.0 0.0 0.00 0.00 0.00 87 1014.1
20260905000005 70 0 0.0 0.0 0.00 0.00 0.00 88 1013.9
20260904235526 70 0 0.0 0.0 0.00 0.00 0.00 87 1014.2
20260904235026 70 0 0.0 0.0 0.00 0.00 0.00 86 1014.1
20260904234505 70 0 0.0 0.0 0.00 0.00 0.00 87 1014.0
20260904234004 70 0 0.0 0.0 0.00 0.00 0.00 86 1013.8
20260904233505 70 0 0.0 0.0 0.00 0.00 0.00 86 1013.8
20260904233005 70 0 0.0 0.0 0.00 0.00 0.00 86 1013.7
20260904232504 70 0 0.0 0.0 0.00 0.00 0.00 86 1013.8
20260904232004 71 0 0.0 0.0 0.00 0.00 0.00 85 1013.9
20260904231504 71 0 0.0 0.0 0.00 0.00 0.00 84 1013.8
20260904231026 71 0 0.0 0.0 0.00 0.00 0.00 85 1013.7
20260904230504 71 64 0.0 1.0 0.00 0.00 0.00 84 1013.7
20260904230026 71 64 0.0 1.0 0.00 0.00 0.00 84 1013.8
20260904225504 72 0 0.0 0.0 0.00 0.00 0.00 85 1013.9
20260904225005 72 0 0.0 0.0 0.00 0.00 0.00 83 1014.0
20260904224525 72 0 0.0 0.0 0.00 0.00 0.00 83 1014.0
20260904224004 72 0 0.0 0.0 0.00 0.00 0.00 82 1014.1
20260904223504 73 0 0.0 0.0 0.00 0.00 0.00 81 1014.1
20260904223026 73 0 0.0 0.0 0.00 0.00 0.00 81 1014.2
20260904222504 73 76 0.0 3.0 0.00 0.00 0.00 80 1014.1
20260904222004 73 84 1.0 3.0 0.00 0.00 0.00 81 1014.2
20260904221505 74 100 0.0 3.0 0.00 0.00 0.00 80 1014.0
20260904221004 74 337 0.0 4.0 0.00 0.00 0.00 79 1014.1
20260904220504 74 350 1.0 4.0 0.00 0.00 0.00 80 1014.1
20260904220004 74 340 0.0 3.0 0.00 0.00 0.00 78 1014.2
20260904215504 75 337 0.0 3.0 0.00 0.00 0.00 80 1014.1
20260904215004 75 339 1.0 4.0 0.00 0.00 0.00 79 1014.1
20260904214504 75 340 1.0 4.0 0.00 0.00 0.00 77 1014.1
20260904214004 75 297 1.0 3.0 0.00 0.00 0.00 78 1014.1
20260904213504 76 314 1.0 6.0 0.00 0.00 0.00 79 1014.1
20260904213004 76 356 1.0 7.0 0.00 0.00 0.00 76 1014.0
20260904212504 76 343 1.0 7.0 0.00 0.00 0.00 77 1013.9
20260904212004 76 303 1.0 7.0 0.00 0.00 0.00 78 1013.9
20260904211504 76 353 1.0 7.0 0.00 0.00 0.00 73 1013.8
20260904211004 76 12 1.0 7.0 0.00 0.00 0.00 77 1013.8
20260904210504 76 342 1.0 4.0 0.00 0.00 0.00 70 1013.8
20260904210004 77 349 1.0 4.0 0.00 0.00 0.00 73 1013.7
20260904205525 77 341 1.0 6.0 0.00 0.00 0.00 75 1013.9
20260904205004 77 311 1.0 6.0 0.00 0.00 0.00 72 1014.1
20260904204504 78 331 1.0 6.0 0.00 0.00 0.00 72 1013.9
20260904204004 78 283 1.0 6.0 0.00 0.00 0.00 68 1013.8
20260904203504 78 264 1.0 6.0 0.00 0.00 0.00 67 1013.8
20260904203004 79 265 1.0 9.0 0.00 0.00 0.00 64 1014.0
20260904202504 79 257 3.0 9.0 0.00 0.00 0.00 69 1014.0
20260904202005 79 280 3.0 9.0 0.00 0.00 0.00 66 1014.1
20260904201504 79 289 1.0 6.0 0.00 0.00 0.00 66 1014.2
20260904201004 80 309 1.0 6.0 0.00 0.00 0.00 71 1014.5
20260904200504 79 308 3.0 9.0 0.00 0.00 0.00 64 1014.5
20260904200004 79 323 3.0 9.0 0.00 0.00 0.00 65 1014.5
20260904195504 80 317 3.0 9.0 0.00 0.00 0.00 69 1014.5
20260904195025 80 307 3.0 7.0 0.00 0.00 0.00 65 1014.7
20260904194504 80 313 3.0 7.0 0.00 0.00 0.00 68 1014.7
20260904194004 80 321 3.0 7.0 0.00 0.00 0.00 67 1014.8
20260904193504 80 322 1.0 6.0 0.00 0.00 0.00 71 1014.9
20260904193004 80 332 1.0 6.0 0.00 0.00 0.00 65 1014.9
20260904192504 80 319 1.0 4.0 0.00 0.00 0.00 64 1014.9
20260904192004 80 318 1.0 4.0 0.00 0.00 0.00 65 1015.0
20260904191504 80 285 1.0 4.0 0.00 0.00 0.00 61 1015.0
20260904191004 80 273 1.0 6.0 0.00 0.00 0.00 65 1015.0
20260904190504 80 302 3.0 9.0 0.00 0.00 0.00 67 1015.1
20260904190004 80 323 3.0 9.0 0.00 0.00 0.00 67 1015.2
20260904185504 80 321 3.0 10.0 0.00 0.00 0.00 63 1015.2
20260904185025 80 292 3.0 10.0 0.00 0.00 0.00 71 1015.2
20260904184504 79 274 1.0 10.0 0.00 0.00 0.00 67 1015.2
20260904184004 78 296 1.0 10.0 0.00 0.00 0.00 65 1015.2
20260904183504 78 319 3.0 6.0 0.00 0.00 0.00 66 1015.2
20260904183004 78 322 3.0 6.0 0.00 0.00 0.00 65 1015.3
20260904182504 79 299 3.0 6.0 0.00 0.00 0.00 71 1015.4
20260904182004 79 265 3.0 9.0 0.00 0.00 0.00 69 1015.4
20260904181504 79 274 3.0 9.0 0.00 0.00 0.00 70 1015.4
20260904181004 79 318 3.0 7.0 0.00 0.00 0.00 71 1015.4
20260904180504 79 318 1.0 7.0 0.00 0.00 0.00 65 1015.3
20260904180004 79 248 1.0 4.0 0.00 0.00 0.00 69 1015.4
20260904175504 78 223 3.0 9.0 0.00 0.00 0.00 73 1015.5
20260904175025 78 203 3.0 9.0 0.00 0.00 0.00 65 1015.6
20260904174504 78 307 3.0 9.0 0.00 0.00 0.00 72 1015.7
20260904174004 78 304 3.0 9.0 0.00 0.00 0.00 74 1015.5
20260904173504 78 268 3.0 7.0 0.00 0.00 0.00 76 1015.5
20260904173004 78 268 3.0 10.0 0.00 0.00 0.00 68 1015.6
20260904172504 78 299 3.0 12.0 0.00 0.00 0.00 76 1015.6
20260904172004 77 301 1.0 12.0 0.00 0.00 0.00 71 1015.6
20260904171504 77 303 3.0 16.0 0.00 0.00 0.00 78 1015.6
20260904171004 77 321 3.0 16.0 0.00 0.00 0.00 78 1015.7
20260904170504 78 336 1.0 4.0 0.00 0.00 0.00 76 1015.7
20260904170025 78 347 1.0 6.0 0.00 0.00 0.00 79 1015.7
20260904165504 77 304 3.0 9.0 0.00 0.00 0.00 76 1015.7
20260904165004 77 279 3.0 9.0 0.00 0.00 0.00 73 1015.7
20260904164504 77 250 1.0 6.0 0.00 0.00 0.00 77 1015.6
20260904164004 77 218 1.0 6.0 0.00 0.00 0.00 72 1015.7
20260904163504 77 231 1.0 4.0 0.00 0.00 0.00 76 1015.7
20260904163004 77 278 1.0 6.0 0.00 0.00 0.00 76 1015.7
20260904162525 77 297 1.0 6.0 0.00 0.00 0.00 76 1015.8
20260904162004 77 221 1.0 9.0 0.00 0.00 0.00 77 1015.8
20260904161504 77 209 1.0 9.0 0.00 0.00 0.00 68 1015.8
20260904161004 77 251 1.0 7.0 0.00 0.00 0.00 77 1015.8
20260904160504 76 290 1.0 7.0 0.00 0.00 0.00 75 1015.9
20260904160004 76 263 1.0 10.0 0.00 0.00 0.00 80 1015.9
20260904155504 75 261 1.0 10.0 0.00 0.00 0.00 76 1015.9
20260904155025 75 293 1.0 6.0 0.00 0.00 0.00 85 1016.1
20260904154504 74 304 1.0 6.0 0.00 0.00 0.00 86 1016.1
20260904154004 74 330 1.0 7.0 0.00 0.00 0.00 88 1016.1
20260904153504 74 306 1.0 7.0 0.00 0.00 0.00 87 1016.2
20260904153004 74 287 1.0 9.0 0.00 0.00 0.00 85 1016.1
20260904152525 73 278 1.0 9.0 0.00 0.00 0.00 88 1016.2
20260904152004 73 277 1.0 4.0 0.00 0.00 0.00 88 1016.2
20260904151504 72 312 1.0 4.0 0.00 0.00 0.00 88 1015.9
20260904151004 72 27 1.0 4.0 0.00 0.00 0.00 90 1015.9
20260904150525 72 315 1.0 9.0 0.00 0.00 0.00 87 1016.0
20260904150004 72 238 0.0 9.0 0.00 0.00 0.00 91 1016.1
20260904145504 72 256 0.0 3.0 0.00 0.00 0.00 91 1016.1
20260904145004 72 311 0.0 4.0 0.00 0.00 0.00 90 1016.2
20260904144525 72 325 1.0 4.0 0.00 0.00 0.00 89 1016.3
20260904144004 72 313 1.0 4.0 0.00 0.00 0.00 90 1016.2
20260904143504 72 281 1.0 7.0 0.00 0.00 0.00 91 1016.2
20260904143004 72 190 1.0 7.0 0.00 0.00 0.00 91 1016.2
20260904142504 72 326 1.0 6.0 0.00 0.00 0.00 93 1016.4
20260904142004 72 342 1.0 6.0 0.00 0.00 0.00 93 1016.3
20260904141504 71 343 1.0 4.0 0.00 0.00 0.00 93 1016.2
20260904141004 71 299 1.0 4.0 0.00 0.00 0.00 94 1016.0
20260904140504 71 337 1.0 4.0 0.00 0.00 0.00 92 1016.0
20260904140004 70 360 1.0 4.0 0.00 0.00 0.00 94 1016.0
20260904135504 70 328 1.0 4.0 0.00 0.00 0.00 94 1015.9
20260904135025 70 316 0.0 3.0 0.00 0.00 0.00 93 1016.0
20260904134504 70 275 0.0 3.0 0.00 0.00 0.00 95 1015.9
20260904134004 70 240 1.0 3.0 0.00 0.00 0.00 94 1015.8
20260904133504 70 255 1.0 4.0 0.00 0.00 0.00 95 1015.7
20260904133004 70 312 1.0 4.0 0.00 0.00 0.00 95 1015.7
20260904132504 70 292 1.0 4.0 0.00 0.00 0.00 96 1015.6
20260904132004 70 261 1.0 4.0 0.00 0.00 0.00 95 1015.6
20260904131504 70 225 1.0 4.0 0.00 0.00 0.00 95 1015.8
20260904131004 70 270 1.0 4.0 0.00 0.00 0.00 97 1015.8
20260904130504 70 327 1.0 6.0 0.00 0.00 0.00 97 1015.8
20260904130004 70 353 1.0 7.0 0.00 0.00 0.00 97 1015.7
20260904125504 70 36 1.0 7.0 0.00 0.00 0.00 98 1015.8
20260904125004 70 120 1.0 4.0 0.00 0.00 0.00 98 1015.8
20260904124525 70 88 1.0 4.0 0.00 0.00 0.00 98 1015.8
20260904124004 70 117 0.0 3.0 0.00 0.00 0.00 98 1015.9
20260904123504 70 164 0.0 3.0 0.00 0.00 0.00 98 1015.9
20260904123004 70 155 0.0 1.0 0.00 0.00 0.00 98 1015.7
20260904122504 69 240 0.0 3.0 0.00 0.00 0.00 98 1015.6
20260904122004 69 274 0.0 3.0 0.00 0.00 0.00 98 1015.5
20260904121504 69 308 0.0 3.0 0.00 0.00 0.00 99 1015.6
20260904121004 69 311 0.0 3.0 0.00 0.00 0.00 99 1015.6
20260904120503 69 307 0.0 3.0 0.00 0.00 0.00 99 1015.6
20260904120004 69 302 0.0 3.0 0.00 0.00 0.00 99 1015.7
20260904115504 70 302 0.0 3.0 0.00 0.00 0.00 99 1015.6
20260904115025 69 302 0.0 3.0 0.00 0.00 0.00 99 1015.6
20260904114504 70 302 0.0 1.0 0.00 0.00 0.00 99 1015.9
20260904114004 70 286 0.0 3.0 0.00 0.00 0.00 99 1015.8
20260904113504 69 294 1.0 3.0 0.00 0.00 0.00 99 1015.6
20260904113004 69 267 1.0 3.0 0.00 0.00 0.00 99 1015.5
20260904112525 69 230 1.0 4.0 0.00 0.00 0.00 99 1015.6